• In Netherlands
  • List of Countries
  • For 7 days
  • Water Temperature
  • Satellite Maps
  • Weather Map
  • Weather Widgets
  • user-avatar
    Login

    Hourly Weather Prutz

    Today, 22 November, Wednesday

    Time Temperature Precipitation Wind Pressure Humidity
    00:00 -1°C° 0 mm 2 mps 632 mmHg 78%
    01:00 -1°C° 0 mm 2 mps 632 mmHg 75%
    02:00 -1°C° 0 mm 2 mps 631 mmHg 74%
    03:00 -1°C° 0 mm 2 mps 631 mmHg 72%
    04:00 -1°C° 0 mm 2 mps 631 mmHg 71%
    05:00 -2°C° 0 mm 2 mps 631 mmHg 69%
    06:00 -2°C° 0 mm 2 mps 631 mmHg 68%
    07:00 -1°C° 0 mm 3 mps 631 mmHg 66%
    08:00 +2°C° 0 mm 2 mps 632 mmHg 68%
    09:00 +3°C° 0 mm 2 mps 632 mmHg 70%
    10:00 +4°C° 0 mm 2 mps 632 mmHg 72%
    11:00 +5°C° 0 mm 2 mps 632 mmHg 76%
    12:00 +6°C° 0 mm 2 mps 632 mmHg 80%
    13:00 +7°C° 0 mm 2 mps 633 mmHg 80%
    14:00 +6°C° 0 mm 2 mps 632 mmHg 78%
    15:00 +4°C° 0 mm 2 mps 632 mmHg 77%
    16:00 +3°C° 0 mm 2 mps 631 mmHg 75%
    17:00 +2°C° 0 mm 2 mps 631 mmHg 75%
    18:00 +1°C° 0 mm 2 mps 631 mmHg 74%
    19:00 -1°C° 0 mm 3 mps 631 mmHg 74%
    20:00 -1°C° 0 mm 3 mps 631 mmHg 74%
    21:00 -1°C° 0 mm 3 mps 631 mmHg 75%
    22:00 -2°C° 0 mm 3 mps 630 mmHg 75%
    23:00 -2°C° 0 mm 3 mps 630 mmHg 75%

    Tomorrow, 23 November, Thursday

    Time Temperature Precipitation Wind Pressure Humidity
    00:00 -2°C° 0 mm 3 mps 630 mmHg 75%
    01:00 -2°C° 0 mm 3 mps 630 mmHg 76%
    02:00 -2°C° 0 mm 3 mps 630 mmHg 76%
    03:00 -2°C° 0 mm 3 mps 630 mmHg 76%
    04:00 -2°C° 0 mm 3 mps 630 mmHg 76%
    05:00 -2°C° 0 mm 3 mps 630 mmHg 75%
    06:00 -2°C° 0 mm 3 mps 630 mmHg 75%
    07:00 -4°C° 0 mm 3 mps 630 mmHg 75%
    08:00 -1°C° 0 mm 3 mps 631 mmHg 75%
    09:00 +1°C° 0 mm 2 mps 631 mmHg 75%
    10:00 +3°C° 0 mm 2 mps 632 mmHg 75%
    11:00 +4°C° 0 mm 2 mps 632 mmHg 78%
    12:00 +5°C° 0 mm 2 mps 632 mmHg 81%
    13:00 +7°C° 0 mm 1 mps 632 mmHg 83%
    14:00 +6°C° 0 mm 1 mps 632 mmHg 81%
    15:00 +5°C° 0 mm 1 mps 632 mmHg 80%
    16:00 +4°C° 0 mm 1 mps 631 mmHg 78%
    17:00 +3°C° 0 mm 1 mps 632 mmHg 76%
    18:00 +2°C° 0 mm 1 mps 632 mmHg 75%
    19:00 +1°C° 0 mm 1 mps 632 mmHg 73%
    20:00 +1°C° 0 mm 1 mps 632 mmHg 71%
    21:00 0°C° 0 mm 1 mps 632 mmHg 70%
    22:00 0°C° 0 mm 1 mps 632 mmHg 68%
    23:00 0°C° 0 mm 1 mps 632 mmHg 67%

    Day after tomorrow, 24 November, Friday

    Time Temperature Precipitation Wind Pressure Humidity
    00:00 -2°C° 0 mm 2 mps 633 mmHg 67%
    01:00 -2°C° 0 mm 2 mps 633 mmHg 67%
    02:00 -2°C° 0 mm 2 mps 633 mmHg 68%
    03:00 -2°C° 0 mm 2 mps 632 mmHg 68%
    04:00 -2°C° 0 mm 2 mps 632 mmHg 69%
    05:00 -2°C° 0 mm 2 mps 632 mmHg 71%
    06:00 -3°C° 0 mm 2 mps 632 mmHg 72%
    07:00 -3°C° 0 mm 2 mps 632 mmHg 73%
    08:00 -1°C° 0 mm 2 mps 633 mmHg 73%
    09:00 +1°C° 0 mm 2 mps 633 mmHg 73%
    10:00 +3°C° 0 mm 2 mps 633 mmHg 74%
    11:00 +4°C° 0 mm 2 mps 633 mmHg 75%
    12:00 +5°C° 0 mm 2 mps 633 mmHg 77%
    13:00 +6°C° 0 mm 2 mps 633 mmHg 78%
    14:00 +5°C° 0 mm 2 mps 633 mmHg 79%
    15:00 +4°C° 0 mm 2 mps 633 mmHg 80%
    16:00 +3°C° 0 mm 2 mps 632 mmHg 81%
    17:00 +2°C° 0 mm 2 mps 632 mmHg 81%
    18:00 +1°C° 0 mm 2 mps 632 mmHg 81%
    19:00 +1°C° 0 mm 2 mps 632 mmHg 81%
    20:00 -1°C° 0 mm 2 mps 632 mmHg 82%
    21:00 -1°C° 0 mm 2 mps 632 mmHg 82%
    22:00 -1°C° 0 mm 2 mps 632 mmHg 82%
    23:00 -1°C° 0 mm 2 mps 632 mmHg 83%

    25 November, Saturday

    Time Temperature Precipitation Wind Pressure Humidity
    00:00 -1°C° 0 mm 2 mps 632 mmHg 84%
    01:00 -1°C° 0 mm 3 mps 631 mmHg 85%
    02:00 -1°C° 0 mm 3 mps 631 mmHg 86%
    03:00 -1°C° 0 mm 3 mps 630 mmHg 87%
    04:00 -1°C° 0 mm 3 mps 630 mmHg 88%
    05:00 -1°C° 0 mm 3 mps 629 mmHg 88%
    06:00 -1°C° 0 mm 3 mps 629 mmHg 88%
    07:00 -1°C° 0 mm 3 mps 629 mmHg 89%
    08:00 0°C° 0 mm 3 mps 629 mmHg 88%
    09:00 +1°C° 0 mm 3 mps 629 mmHg 86%
    10:00 +1°C° 0 mm 4 mps 629 mmHg 85%
    11:00 +3°C° 0.3 mm 3 mps 629 mmHg 88%
    12:00 +3°C° 0.3 mm 3 mps 629 mmHg 90%
    13:00 +4°C° 0.3 mm 2 mps 629 mmHg 93%
    14:00 +3°C° 1 mm 2 mps 629 mmHg 93%
    15:00 +3°C° 1 mm 2 mps 629 mmHg 94%
    16:00 +2°C° 1 mm 2 mps 629 mmHg 94%
    17:00 0°C° 0.7 mm 3 mps 630 mmHg 94%
    18:00 -1°C° 0.7 mm 3 mps 630 mmHg 94%
    19:00 -2°C° 0.7 mm 3 mps 630 mmHg 95%
    20:00 -4°C° 0.2 mm 3 mps 631 mmHg 94%
    21:00 -5°C° 0.2 mm 3 mps 631 mmHg 94%
    22:00 -6°C° 0.2 mm 3 mps 631 mmHg 94%
    23:00 -6°C° 0.1 mm 3 mps 631 mmHg 94%

    26 November, Sunday

    Time Temperature Precipitation Wind Pressure Humidity
    00:00 -6°C° 0.1 mm 2 mps 631 mmHg 94%
    01:00 -7°C° 0.1 mm 2 mps 631 mmHg 94%
    02:00 -7°C° 0 mm 2 mps 631 mmHg 94%
    03:00 -8°C° 0 mm 2 mps 631 mmHg 94%
    04:00 -9°C° 0 mm 2 mps 631 mmHg 93%
    05:00 -10°C° 0 mm 2 mps 631 mmHg 93%
    06:00 -10°C° 0 mm 2 mps 631 mmHg 92%
    07:00 -12°C° 0 mm 2 mps 631 mmHg 91%
    08:00 -10°C° 0 mm 2 mps 631 mmHg 88%
    09:00 -9°C° 0 mm 2 mps 632 mmHg 84%
    10:00 -9°C° 0 mm 3 mps 632 mmHg 81%
    11:00 -8°C° 0 mm 3 mps 633 mmHg 79%
    12:00 -8°C° 0 mm 3 mps 633 mmHg 78%
    13:00 -7°C° 0 mm 3 mps 633 mmHg 76%
    14:00 -7°C° 0.1 mm 3 mps 633 mmHg 78%
    15:00 -8°C° 0.1 mm 3 mps 633 mmHg 80%
    16:00 -8°C° 0.1 mm 3 mps 633 mmHg 82%
    17:00 -8°C° 0.1 mm 2 mps 633 mmHg 84%
    18:00 -9°C° 0.1 mm 2 mps 633 mmHg 86%
    19:00 -9°C° 0.1 mm 2 mps 633 mmHg 88%
    20:00 -9°C° 0.1 mm 2 mps 634 mmHg 88%
    21:00 -10°C° 0.1 mm 2 mps 634 mmHg 88%
    22:00 -10°C° 0.1 mm 2 mps 634 mmHg 88%
    23:00 -10°C° 0.1 mm 2 mps 634 mmHg 88%

    27 November, Monday

    Time Temperature Precipitation Wind Pressure Humidity
    00:00 -10°C° 0.1 mm 2 mps 634 mmHg 88%
    01:00 -10°C° 0.1 mm 2 mps 634 mmHg 87%
    02:00 -9°C° 0.1 mm 2 mps 634 mmHg 87%
    03:00 -9°C° 0.1 mm 2 mps 634 mmHg 88%
    04:00 -9°C° 0.1 mm 2 mps 634 mmHg 88%
    05:00 -9°C° 0.2 mm 2 mps 634 mmHg 88%
    06:00 -9°C° 0.2 mm 2 mps 634 mmHg 89%
    07:00 -8°C° 0.2 mm 2 mps 634 mmHg 90%
    08:00 -8°C° 0.1 mm 2 mps 635 mmHg 88%
    09:00 -7°C° 0.1 mm 2 mps 635 mmHg 86%
    10:00 -6°C° 0.1 mm 2 mps 635 mmHg 84%
    11:00 -6°C° 0.1 mm 2 mps 635 mmHg 81%
    12:00 -5°C° 0.1 mm 2 mps 635 mmHg 79%
    13:00 -5°C° 0.1 mm 2 mps 635 mmHg 76%
    14:00 -5°C° 0.1 mm 2 mps 635 mmHg 79%
    15:00 -6°C° 0.1 mm 2 mps 634 mmHg 81%
    16:00 -6°C° 0.1 mm 2 mps 634 mmHg 84%
    17:00 -7°C° 0 mm 2 mps 634 mmHg 86%
    18:00 -8°C° 0 mm 2 mps 634 mmHg 87%
    19:00 -9°C° 0 mm 2 mps 633 mmHg 89%
    20:00 -9°C° 0 mm 2 mps 633 mmHg 86%
    21:00 -9°C° 0 mm 2 mps 633 mmHg 84%
    22:00 -8°C° 0 mm 2 mps 633 mmHg 81%
    23:00 -8°C° 0.1 mm 2 mps 633 mmHg 82%
    Show more